Погода в Лыткарине

Россия / Московская область     55°34′45″N   37°54′32″E
темп.,
°C
ветер,
м/с
пор.,
м/с
влажн.,
%
обл.,
%
осадки,
мм/ч
давл.,
гПа
погр.,
м
27 июня, пн
пн2700:00+20ссз11674 0.0 102011
03:00+20зсз22695 0.0 102011
06:00+21сз36771 0.0 1020135
09:00+26зсз45620 0.0 1020502
12:00+30сз45482 0.0 10191991
15:00+32сз574312 0.0 10182680
18:00+29ссз485491 0.0 1017254
21:00+23св33660 0.0 101835
28 июня, вт
вт2800:00+20с22710 0.0 101911
03:00+19с22780 0.0 101913
06:00+19св36855 0.0 1020216
09:00+22св56585 0.0 1020703
12:00+24ссв564360 0.0 10211254
15:00+24св56385 0.0 10211553
18:00+21св58485 0.0 1022510
21:00+15св49631 0.0 1023163
29 июня, ср
ср2900:00+12всв366999 0.0 1024102
03:00+10в33780 0.0 102437
06:00+12всв24740 0.0 1024115
09:00+17всв23550 0.0 1024687
12:00+20вюв23420 0.0 10231611
15:00+22ююв13362 0.0 10221984
18:00+22ююз22444 0.0 1020744
21:00+15с12650 0.0 102113
30 июня, чт
чт3000:00+13вюв22681 0.0 102211
03:00+11с11725 0.0 102210
06:00+14ссз127066 0.0 102173
09:00+19ссз45495 0.0 1021838
12:00+23с46365 0.0 10201779
15:00+24с573470 0.0 10192251
18:00+23с5849100 0.0 1019367
21:00+18с4658100 0.0 102073
1 июля, пт
пт100:00+15с336727 0.0 102027
03:00+13с22765 0.0 102118
06:00+15с23760 0.0 102298
09:00+21с34565 0.0 1022663
12:00+25с35410 0.0 10212034
15:00+27с35362 0.0 10202378
18:00+26с35480 0.0 1020447
21:00+20св22610 0.0 102015